Content
SEND FEEDBACK

Daily
Averages
Monthly
Summary
French Polynesia

HITIAA, FRENCH POLYNESIA


Home > Oceania > French Polynesia
Elevation: 7 feet     Latitude: 17 33S     Longitude: 149 37W

WEATHER
 
SELECT A DAY
Number of Records: 208,679;   Date Range: 6/30/96 - 8/10/14
 
SHARE

PRINT THIS DATA

[ ← Previous Day ]
WEATHER ALMANAC - JANUARY 10, 2013
[ Next Day → ]
[ °C ]   °F
Weather ElementAverageHighLow
Temperature81.6 °F87.8 °F (12:00 pm)77 °F (2:30 am)
Dewpoint71.1 °F74 °F (2:00 pm)68 °F (9:30 pm)
Humidity69.7 %79 % (7:30 am)53 % (11:00 am)
Barometer29.81 in29.85 in (11:00 pm)29.77 in (1:30 am)
Wind Speed4.6 mph16.1 mph (3:00 pm)
Weather ElementAverage
Visibility7.5 mi
Wind DirectionE (94.2 °)

Weather ElementTotal
Precipitation---
Cooling Degree Days17.4 (Base 65)
Growing Degree Days32.4 (Base 50)
Averaged from 55 records on January 10, 2013
WEATHER CONDITIONS BREAKOUT
WIND DIRECTION BREAKOUT
WEATHER BY HOUR - JANUARY 10, 2013
[ °C ]   °F
Local TimeTemperatureDewpointHumidityBarometerVisibilityWind DirectionWind SpeedGust SpeedPrecipitationEventsConditions
12:30 AM78.8 °F71.6 °F78 %29.80 in6.2 miEast (100°)3.5 mphScattered Clouds
1:00 AM78.8 °F69.8 °F74 %29.80 in6.2 miVariable3.5 mphPartly Cloudy
1:30 AM78.8 °F71.6 °F78 %29.77 in6.2 miEast (100°)3.5 mphPartly Cloudy
2:00 AM78.0 °F71.0 °F72 %29.79 in12.0 miESE (110°)6.7 mphScattered Clouds
2:00 AM78.8 °F69.8 °F74 %29.77 in6.2 miESE (110°)3.5 mphPartly Cloudy
2:30 AM77.0 °F69.8 °F78 %29.77 in6.2 miEast (100°)3.5 mphPartly Cloudy
3:00 AM77.0 °F69.8 °F78 %29.77 in6.2 miEast (100°)3.5 mphPartly Cloudy
3:30 AM77.0 °F69.8 °F78 %29.77 in6.2 miEast (100°)3.5 mphPartly Cloudy
4:00 AM77.0 °F69.8 °F78 %29.77 in6.2 miEast (100°)3.5 mphMostly Cloudy
4:30 AM78.8 °F69.8 °F74 %29.80 in6.2 miEast (100°)3.5 mphMostly Cloudy
5:00 AM78.0 °F70.0 °F71 %29.81 in37.0 miEast (100°)4.6 mphClear
5:00 AM78.8 °F69.8 °F74 %29.80 in6.2 miEast (100°)4.6 mphMostly Cloudy
5:30 AM78.8 °F69.8 °F74 %29.80 in6.2 miEast (100°)4.6 mph
6:00 AM78.8 °F69.8 °F74 %29.83 in6.2 miEast (90°)3.5 mphMostly Cloudy
6:30 AM78.8 °F69.8 °F74 %29.83 in6.2 miVariable3.5 mphMostly Cloudy
7:00 AM78.8 °F71.6 °F78 %29.83 in6.2 miEast (90°)4.6 mphMostly Cloudy
7:30 AM80.6 °F73.4 °F79 %29.83 in6.2 miEast (100°)3.5 mphScattered Clouds
8:00 AM84.0 °F71.0 °F57 %29.84 in16.0 miNE (40°)6.7 mphPartly Cloudy
8:00 AM84.2 °F71.6 °F66 %29.83 in6.2 miNE (40°)3.5 mphScattered Clouds
8:30 AM86.0 °F71.6 °F62 %29.83 in6.2 miCalmScattered Clouds
9:00 AM84.2 °F71.6 °F66 %29.83 in6.2 miVariable2.3 mphScattered Clouds
9:30 AM86.0 °F71.6 °F62 %29.83 in6.2 miNNE (20°)3.5 mphMostly Cloudy
10:00 AM86.0 °F71.6 °F62 %29.83 in6.2 miVariable2.3 mphMostly Cloudy
10:34 AM86.0 °F71.6 °F62 %29.83 in6.2 miVariable2.3 mphMostly Cloudy
11:00 AM86.0 °F71.0 °F53 %29.83 in16.0 miNorth (350°)2.3 mphPartly Cloudy
11:00 AM86.0 °F71.6 °F62 %29.83 in6.2 miVariable1.2 mphMostly Cloudy
11:30 AM86.0 °F71.6 °F62 %29.80 in6.2 miVariable2.3 mphMostly Cloudy
12:00 PM87.8 °F71.6 °F58 %29.80 in6.2 miVariable1.2 mphMostly Cloudy
12:30 PM87.8 °F73.4 °F62 %29.80 in6.2 miNorth (10°)6.9 mphScattered Clouds
1:00 PM87.8 °F71.6 °F58 %29.77 in6.2 miNorth (10°)3.5 mphScattered Clouds
1:30 PM87.8 °F73.4 °F62 %29.77 in6.2 miNorth (10°)3.5 mphScattered Clouds
2:00 PM86.0 °F74.0 °F59 %29.79 in9.0 miSSW (200°)6.9 mphMostly Cloudy
2:00 PM86.0 °F73.4 °F66 %29.77 in6.2 miSSW (200°)6.9 mphScattered Clouds
2:30 PM87.8 °F73.4 °F62 %29.77 in6.2 miVariable3.5 mphScattered Clouds
3:00 PM84.2 °F73.4 °F70 %29.77 in6.2 miNorth (360°)16.1 mphScattered Clouds
3:30 PM82.4 °F71.6 °F70 %29.77 in6.2 miNNE (20°)11.5 mphScattered Clouds
4:00 PM82.4 °F71.6 °F70 %29.77 in6.2 miNE (40°)8.1 mphMostly Cloudy
4:30 PM82.4 °F73.4 °F74 %29.80 in6.2 miNorth (360°)5.8 mphScattered Clouds
5:00 PM82.0 °F72.0 °F63 %29.81 in9.0 miNNW (340°)9.2 mphMostly Cloudy
5:00 PM82.4 °F71.6 °F70 %29.80 in6.2 miNNW (340°)9.2 mphScattered Clouds
5:30 PM80.6 °F71.6 °F74 %29.80 in6.2 miNorth (10°)6.9 mphScattered Clouds
6:00 PM80.6 °F69.8 °F70 %29.80 in6.2 miNNW (330°)3.5 mphScattered Clouds
6:30 PM80.6 °F71.6 °F74 %29.83 in6.2 miNNW (340°)3.5 mphMostly Cloudy
7:00 PM78.8 °F71.6 °F78 %29.83 in6.2 miVariable3.5 mphMostly Cloudy
7:30 PM80.6 °F71.6 °F74 %29.83 in6.2 miNE (40°)6.9 mphMostly Cloudy
8:00 PM79.0 °F71.0 °F72 %29.84 in12.0 miENE (70°)15.7 mphPartly Cloudy
8:00 PM78.8 °F71.6 °F78 %29.83 in6.2 miENE (70°)8.1 mphMostly Cloudy
8:30 PM78.8 °F71.6 °F78 %29.83 in6.2 miNE (50°)5.8 mphMostly Cloudy
9:00 PM80.6 °F71.6 °F74 %29.83 in6.2 miENE (60°)4.6 mphMostly Cloudy
9:30 PM80.6 °F68.0 °F65 %29.83 in6.2 miVariable2.3 mphMostly Cloudy
10:00 PM80.6 °F68.0 °F65 %29.83 in6.2 miCalmScattered Clouds
10:30 PM78.8 °F69.8 °F74 %29.83 in6.2 miSouth (180°)3.5 mphScattered Clouds
11:00 PM79.0 °F69.0 °F65 %29.85 in12.0 miSouth (190°)1.2 mphScattered Clouds
11:00 PM78.8 °F69.8 °F74 %29.83 in6.2 miVariable1.2 mphScattered Clouds
11:30 PM78.8 °F69.8 °F74 %29.83 in6.2 miVariable1.2 mphScattered Clouds
Hourly data recorded from NTAA, located miles away from Hitiaa, French Polynesia







STORIES FROM OUR PARTNERS